White Mountain, AK

7:54 AM AKST on February 27, 2017 (GMT -0900)
Golovin

Weather History for PAGL - August, 2014

Change the Weather History Date:

Tuesday, August 12, 2014

  Actual Average Record
Temperature  
Mean Temperature 70 °F -  
Max Temperature 75 °F - - ()
Min Temperature 66 °F - - ()
Cooling Degree Days 6    
Growing Degree Days 20 (Base 50)    
Moisture  
Dew Point 54 °F    
Average Humidity 54    
Maximum Humidity 64    
Minimum Humidity 46    
Precipitation  
Precipitation 0.01 in - - ()
Sea Level Pressure  
Sea Level Pressure 29.54 in    
Wind  
Wind Speed 7 mph (NNW)    
Max Wind Speed 16 mph    
Max Gust Speed 21 mph    
Visibility 10 miles    
Events      
Averages and records for this station are not official NWS values.
T = Trace of Precipitation, MM = Missing Value Source: NWS Daily Summary

Daily Weather History Graph

Daily Weather History Graph

Search for Another Location

Airport or City:

Trip Planner

Search our weather history database for the weather conditions in past years. The results will help you decide how hot, cold, wet, or windy it might be!

Date:

Astronomy

Aug. 12, 2014 Rise Set
Actual Time 6:31 AM AKDT 11:20 PM AKDT
Civil Twilight 5:20 AM AKDT 12:29 AM AKDT
Nautical Twilight 3:29 AM AKDT 2:24 AM AKDT
Astronomical Twilight Sun does not rise Sun does not rise
Moon 11:06 PM AKDT (8/12) 10:21 AM AKDT (8/12)
Length of Visible Light 19h 09m
Length of Day
16h 48m
Waning Gibbous, 94% of the Moon is Illuminated
Aug 12
Waning Gibbous
Aug 17
Last Quarter
Aug 25
New
Sep 2
First Quarter
Sep 8
Full

Hourly Weather History & Observations

Time (AKDT) Temp. Dew Point Humidity Pressure Visibility Wind Dir Wind Speed Gust Speed Precip Events Conditions
12:16 AM 73.4 °F 53.6 °F 50% 29.59 in 10.0 mi East 8.1 mph - N/A   Overcast
12:36 AM 71.6 °F 53.6 °F 53% 29.59 in 10.0 mi ENE 11.5 mph - N/A   Mostly Cloudy
12:56 AM 71.6 °F 53.6 °F 53% 29.58 in 10.0 mi Calm Calm - N/A   Overcast
1:16 AM 71.6 °F 53.6 °F 53% 29.57 in 10.0 mi ENE 16.1 mph - N/A   Overcast
1:36 AM 69.8 °F 53.6 °F 56% 29.57 in 10.0 mi NNE 8.1 mph - N/A   Overcast
1:56 AM 69.8 °F 53.6 °F 56% 29.57 in 10.0 mi North 6.9 mph - 0.01 in   Overcast
2:16 AM 68.0 °F 53.6 °F 60% 29.57 in 10.0 mi North 9.2 mph - N/A   Overcast
2:36 AM 66.2 °F 53.6 °F 64% 29.57 in 10.0 mi NNE 8.1 mph - N/A   Overcast
3:16 AM 69.8 °F 51.8 °F 53% 29.58 in 10.0 mi NE 4.6 mph - N/A   Overcast
3:36 AM 69.8 °F 53.6 °F 56% 29.58 in 10.0 mi East 4.6 mph - N/A   Mostly Cloudy
3:56 AM 69.8 °F 53.6 °F 56% 29.58 in 10.0 mi NE 6.9 mph - N/A   Scattered Clouds
4:16 AM 68.0 °F 53.6 °F 60% 29.57 in 10.0 mi NE 9.2 mph - N/A   Overcast
4:36 AM 68.0 °F 51.8 °F 56% 29.57 in 10.0 mi NNE 5.8 mph - N/A   Overcast
4:56 AM 66.2 °F 51.8 °F 60% 29.57 in 10.0 mi NNE 6.9 mph - N/A   Overcast
5:16 AM 66.2 °F 51.8 °F 60% 29.57 in 10.0 mi North 4.6 mph - N/A   Overcast
5:36 AM 68.0 °F 53.6 °F 60% 29.56 in 10.0 mi NW 4.6 mph - N/A   Overcast
5:56 AM 68.0 °F 51.8 °F 56% 29.56 in 10.0 mi NNW 3.5 mph - N/A   Overcast
6:36 AM 68.0 °F 53.6 °F 60% 29.55 in 10.0 mi NNW 4.6 mph - N/A   Overcast
6:56 AM 68.0 °F 51.8 °F 56% 29.55 in 10.0 mi Calm Calm - N/A   Scattered Clouds
7:16 AM 66.2 °F 51.8 °F 60% 29.55 in 10.0 mi North 3.5 mph - N/A   Partly Cloudy
7:36 AM 66.2 °F 51.8 °F 60% 29.55 in 10.0 mi Calm Calm - N/A   Clear
7:56 AM 69.8 °F 53.6 °F 56% 29.56 in 10.0 mi West 4.6 mph - N/A   Mostly Cloudy
9:36 AM 71.6 °F 53.6 °F 53% 29.55 in 10.0 mi NNE 6.9 mph - N/A   Partly Cloudy
9:56 AM 71.6 °F 53.6 °F 53% 29.55 in 10.0 mi NNE 3.5 mph - N/A   Mostly Cloudy
10:16 AM 71.6 °F 53.6 °F 53% 29.55 in 10.0 mi NNE 8.1 mph - N/A   Scattered Clouds
10:36 AM 71.6 °F 53.6 °F 53% 29.55 in 10.0 mi NW 4.6 mph - N/A   Clear
10:56 AM 71.6 °F 53.6 °F 53% 29.55 in 10.0 mi NW 5.8 mph - N/A   Clear
11:16 AM 71.6 °F 55.4 °F 57% 29.54 in 10.0 mi NW 9.2 mph - N/A   Clear
11:36 AM 71.6 °F 55.4 °F 57% 29.54 in 10.0 mi NW 6.9 mph - N/A   Clear
11:56 AM 71.6 °F 55.4 °F 57% 29.54 in 10.0 mi NW 6.9 mph - N/A   Clear
12:36 PM 73.4 °F 57.2 °F 57% 29.54 in 10.0 mi WNW 6.9 mph - N/A   Clear
12:56 PM 73.4 °F 57.2 °F 57% 29.54 in 10.0 mi WNW 6.9 mph - N/A   Clear
1:16 PM 73.4 °F 57.2 °F 57% 29.54 in 10.0 mi West 6.9 mph - N/A   Clear
1:36 PM 75.2 °F 57.2 °F 53% 29.54 in 10.0 mi West 4.6 mph - N/A   Clear
1:56 PM 75.2 °F 57.2 °F 53% 29.54 in 10.0 mi West 5.8 mph - N/A   Clear
2:16 PM 75.2 °F 55.4 °F 50% 29.53 in 10.0 mi SW 4.6 mph - N/A   Clear
2:36 PM 75.2 °F 55.4 °F 50% 29.53 in 10.0 mi SSW 6.9 mph - N/A   Clear
2:56 PM 75.2 °F 55.4 °F 50% 29.53 in 10.0 mi SSW 4.6 mph - N/A   Partly Cloudy
3:56 PM 75.2 °F 57.2 °F 53% 29.52 in 10.0 mi NNW 3.5 mph - N/A   Clear
4:16 PM 75.2 °F 55.4 °F 50% 29.52 in 10.0 mi WNW 3.5 mph - N/A   Scattered Clouds
4:36 PM 75.2 °F 55.4 °F 50% 29.52 in 10.0 mi NW 4.6 mph - N/A   Scattered Clouds
4:56 PM 75.2 °F 55.4 °F 50% 29.51 in 10.0 mi NW 3.5 mph - N/A   Clear
5:16 PM 75.2 °F 55.4 °F 50% 29.51 in 10.0 mi WNW 4.6 mph - N/A   Clear
5:36 PM 75.2 °F 57.2 °F 53% 29.50 in 10.0 mi NW 5.8 mph - N/A   Clear
5:56 PM 75.2 °F 57.2 °F 53% 29.50 in 10.0 mi WNW 5.8 mph - N/A   Partly Cloudy
6:16 PM 75.2 °F 57.2 °F 53% 29.50 in 10.0 mi WNW 8.1 mph - N/A   Mostly Cloudy
6:56 PM 75.2 °F 55.4 °F 50% 29.49 in 10.0 mi NW 8.1 mph - N/A   Clear
7:16 PM 75.2 °F 53.6 °F 47% 29.50 in 10.0 mi NW 10.4 mph - N/A   Clear
7:36 PM 75.2 °F 53.6 °F 47% 29.50 in 10.0 mi NW 10.4 mph - N/A   Clear
7:56 PM 73.4 °F 53.6 °F 50% 29.50 in 10.0 mi North 11.5 mph 19.6 mph N/A   Clear
8:16 PM 73.4 °F 51.8 °F 47% 29.50 in 10.0 mi North 11.5 mph - N/A   Partly Cloudy
8:56 PM 73.4 °F 51.8 °F 47% 29.51 in 10.0 mi NNE 13.8 mph 20.7 mph N/A   Mostly Cloudy
9:16 PM 71.6 °F 53.6 °F 53% 29.51 in 10.0 mi NNE 11.5 mph 16.1 mph N/A   Overcast
9:36 PM 69.8 °F 51.8 °F 53% 29.50 in 10.0 mi NNE 13.8 mph 20.7 mph N/A   Overcast
9:56 PM 68.0 °F 51.8 °F 56% 29.50 in 10.0 mi NNE 10.4 mph - N/A   Overcast
10:16 PM 69.8 °F 50.0 °F 49% 29.50 in 10.0 mi North 11.5 mph - N/A   Partly Cloudy
10:36 PM 68.0 °F 48.2 °F 49% 29.50 in 10.0 mi NNE 10.4 mph - N/A   Clear
10:56 PM 68.0 °F 46.4 °F 46% 29.51 in 10.0 mi NNE 10.4 mph - N/A   Clear
11:16 PM 66.2 °F 46.4 °F 49% 29.51 in 10.0 mi North 10.4 mph - N/A   Clear
11:36 PM 68.0 °F 48.2 °F 49% 29.51 in 10.0 mi North 9.2 mph - N/A   Mostly Cloudy
11:56 PM 69.8 °F 48.2 °F 46% 29.51 in 10.0 mi NNE 9.2 mph - N/A   Overcast